Location: Unspecified
(0.0000°N, 0.0000°E)
Time: 04:28:00
(UTC+00:00)

Envisat - Pass Details

Date: 12 November 2019
Orbit: 764 x 766 km, 98.1° (Epoch: 11 November)

Event Time Altitude Azimuth Distance (km) Brightness Sun altitude
Rises 19:43:25 0° 209° (SSW) 3,230 6.9 -28.3°
Reaches altitude 10° 19:48:37 10° 255° (WSW) 2,298 6.4 -29.5°
Maximum altitude 19:48:51 10° 257° (WSW) 2,296 6.4 -29.5°
Drops below altitude 10° 19:49:03 10° 260° (W) 2,297 6.4 -29.6°
Sets 19:54:18 0° 306° (NW) 3,218 6.6 -30.8°
